GW0234 Weather Reports


Display with metric or nautical units.
time (UTC)temp
F
wind
direction
speed
MPH
gust
MPH
rain 1hr
in
rain 24hr
in
rain mn
in
humidity
%
barometer
mb
20260906094608 54 0 0.0 0.0 0.00 0.00 0.00 91 1015.1
20260906093105 53 0 0.0 0.0 0.00 0.00 0.00 91 1015.0
20260906091606 53 0 0.0 0.0 0.00 0.00 0.00 91 1015.0
20260906090118 53 0 0.0 0.0 0.00 0.00 0.00 90 1015.0
20260906084612 54 0 0.0 0.0 0.00 0.00 0.00 91 1014.9
20260906083116 54 0 0.0 0.0 0.00 0.00 0.00 91 1014.7
20260906081606 54 0 0.0 0.0 0.00 0.00 0.00 91 1014.7
20260906080127 54 0 0.0 0.0 0.00 0.00 0.00 90 1014.5
20260906074609 55 0 0.0 0.0 0.00 0.00 0.00 91 1014.5
20260906073115 55 0 0.0 0.0 0.00 0.00 0.00 91 1014.3
20260906071603 55 0 0.0 0.0 0.00 0.00 0.00 91 1014.2
20260906070111 55 0 0.0 0.0 0.00 0.00 0.00 90 1014.1
20260906064610 55 0 0.0 0.0 0.00 0.00 0.00 90 1014.0
20260906063103 55 0 0.0 0.0 0.00 0.00 0.00 90 1014.0
20260906061606 55 0 0.0 0.0 0.00 0.00 0.00 90 1013.9
20260906060106 55 0 0.0 0.0 0.00 0.00 0.00 90 1013.9
20260906054606 55 0 0.0 0.0 0.00 0.00 0.00 89 1013.9
20260906053105 55 0 0.0 0.0 0.00 0.00 0.00 89 1014.0
20260906051607 55 0 0.0 0.0 0.00 0.00 0.00 89 1013.9
20260906050110 56 0 0.0 0.0 0.00 0.00 0.00 89 1014.0
20260906044606 56 0 0.0 0.0 0.00 0.00 0.00 89 1014.1
20260906043104 56 0 0.0 0.0 0.00 0.00 0.00 89 1014.1
20260906041606 56 0 0.0 0.0 0.00 0.00 0.00 88 1014.3
20260906040107 56 0 0.0 0.0 0.00 0.00 0.00 88 1014.1
20260906034640 57 0 0.0 1.0 0.00 0.00 0.00 88 1014.0
20260906033110 57 0 0.0 2.0 0.00 0.00 0.00 87 1014.1
20260906031605 58 0 0.0 1.0 0.00 0.00 0.00 88 1014.0
20260906024609 59 0 0.0 1.0 0.00 0.00 0.00 88 1013.9
20260906023105 60 0 0.0 1.0 0.00 0.00 0.00 88 1014.0
20260906021612 60 0 0.0 1.0 0.00 0.00 0.00 87 1014.0
20260906020108 61 0 0.0 1.0 0.00 0.00 0.00 86 1013.9
20260906014604 61 0 0.0 0.0 0.00 0.00 0.00 87 1013.9
20260906013108 62 0 0.0 0.0 0.00 0.00 0.00 86 1013.7
20260906011603 62 0 0.0 0.0 0.00 0.00 0.00 86 1013.6
20260906010103 63 0 0.0 1.0 0.00 0.00 0.00 85 1013.6
20260906004605 64 0 0.0 0.0 0.00 0.00 0.00 83 1013.3
20260906003104 65 0 0.0 1.0 0.00 0.00 0.00 83 1013.1
20260906001603 66 0 0.0 0.0 0.00 0.00 0.00 80 1013.1
20260906000112 67 0 0.0 1.0 0.00 0.00 0.00 80 1013.0
20260905234621 68 0 0.0 1.0 0.00 0.00 0.00 79 1012.8
20260905233104 69 0 0.0 1.0 0.00 0.00 0.00 78 1012.9
20260905231608 70 0 0.0 1.0 0.00 0.00 0.00 77 1012.8
20260905230109 71 0 0.0 1.0 0.00 0.00 0.00 76 1012.6
20260905224619 73 163 0.0 2.0 0.00 0.00 0.00 73 1012.7
20260905223107 74 198 0.0 3.0 0.00 0.00 0.00 69 1012.5
20260905221605 76 213 1.0 5.0 0.00 0.00 0.00 69 1012.3
20260905220120 78 0 1.0 3.0 0.00 0.00 0.00 63 1012.2
20260905214606 79 214 0.0 2.0 0.00 0.00 0.00 64 1012.1
20260905213106 79 0 0.0 4.0 0.00 0.00 0.00 63 1011.9
20260905211605 80 117 0.0 5.0 0.00 0.00 0.00 63 1011.8
20260905210109 80 167 0.0 4.0 0.00 0.00 0.00 64 1012.0
20260905204607 80 164 1.0 6.0 0.00 0.00 0.00 65 1011.9
20260905203117 79 300 1.0 6.0 0.00 0.00 0.00 64 1012.0
20260905201604 79 202 2.0 8.0 0.00 0.00 0.00 66 1012.2
20260905200108 79 101 0.0 4.0 0.00 0.00 0.00 68 1012.1
20260905194617 79 163 0.0 4.0 0.00 0.00 0.00 68 1012.1
20260905193104 79 184 1.0 5.0 0.00 0.00 0.00 69 1012.4
20260905191611 79 101 1.0 6.0 0.00 0.00 0.00 70 1012.5
20260905190104 78 126 0.0 4.0 0.00 0.00 0.00 70 1012.5
20260905184616 78 255 1.0 4.0 0.00 0.00 0.00 74 1012.6
20260905183108 76 171 1.0 5.0 0.00 0.00 0.00 77 1012.7
20260905181607 76 160 0.0 2.0 0.00 0.00 0.00 78 1012.9
20260905180105 76 159 1.0 4.0 0.00 0.00 0.00 78 1013.0
20260905174606 76 214 0.0 4.0 0.00 0.00 0.00 78 1013.0
20260905173104 75 178 1.0 4.0 0.00 0.00 0.00 80 1013.2
20260905171636 74 236 1.0 4.0 0.00 0.00 0.00 80 1013.3
20260905170107 74 162 1.0 2.0 0.00 0.00 0.00 80 1013.4
20260905164606 74 0 0.0 2.0 0.00 0.00 0.00 80 1013.4
20260905163105 74 0 0.0 1.0 0.00 0.00 0.00 81 1013.8
20260905161604 73 92 0.0 2.0 0.00 0.00 0.00 79 1013.9
20260905160110 73 88 0.0 2.0 0.00 0.00 0.00 82 1013.9
20260905154646 72 207 0.0 3.0 0.00 0.11 0.00 84 1013.8
20260905153106 72 0 0.0 3.0 0.00 0.11 0.00 84 1013.8
20260905151604 71 209 0.0 3.0 0.00 0.11 0.00 85 1013.8
20260905150109 71 188 0.0 3.0 0.00 0.11 0.00 87 1013.6
20260905144610 70 194 1.0 3.0 0.00 0.11 0.00 88 1013.1
20260905143107 70 143 1.0 3.0 0.00 0.11 0.00 91 1013.1
20260905141604 69 200 1.0 3.0 0.00 0.11 0.00 92 1013.0
20260905140103 69 165 0.0 4.0 0.00 0.11 0.00 94 1013.0
20260905134608 68 228 1.0 3.0 0.00 0.11 0.00 93 1013.1
20260905133102 68 0 0.0 3.0 0.00 0.11 0.00 93 1013.2
20260905131602 68 0 0.0 2.0 0.00 0.11 0.00 94 1013.2
20260905124607 67 0 0.0 1.0 0.00 0.11 0.00 94 1013.1
20260905123105 66 0 0.0 1.0 0.00 0.11 0.00 94 1013.4
20260905121607 66 0 0.0 1.0 0.00 0.11 0.00 94 1013.2
20260905120106 65 0 0.0 0.0 0.00 0.11 0.00 94 1013.1
20260905114610 65 0 0.0 2.0 0.00 0.11 0.00 94 1013.0
20260905113101 65 0 0.0 1.0 0.00 0.11 0.00 93 1012.9
20260905111628 65 0 0.0 0.0 0.00 0.11 0.00 93 1012.9
20260905110113 65 0 0.0 1.0 0.00 0.11 0.00 93 1013.0
20260905104619 65 0 0.0 3.0 0.00 0.11 0.00 93 1013.1
20260905103102 65 0 0.0 0.0 0.00 0.11 0.00 93 1013.0
20260905101602 65 121 0.0 1.0 0.00 0.11 0.00 93 1012.7
20260905100105 65 0 0.0 1.0 0.00 0.11 0.00 93 1012.5